Torna al catalogo

FORMOSAT7-1/COSMIC2-1

AttivoScienzaVLEO
NORAD 44349·PAYLOAD·🇹🇼 Taiwan

Lanciato Jun 25, 2019 da Cape Canaveral Space Force Station

Loading…

Prossimi Passaggi (prossime 24 ore)

TLE

AggiornatoSource: Space-Track

Epoca: Sep 13, 2026, 23:38 UTC

1 44349U 19036L   26256.98513041  .00002200  00000-0  16161-3 0  9997
2 44349  23.9969 153.5915 0000904 127.5288 232.5295 14.96811177397977

Traccia FORMOSAT7-1/COSMIC2-1 in tempo reale con AllMySat

Download on the App Store